Retour au catalogue

STARLINK-1020

ActifCommunicationsVLEO
NORAD 44725·PAYLOAD·🇺🇸 United States

Lancé Nov 11, 2019 depuis Cape Canaveral Space Force Station

Loading…

Prochains Passages (prochaines 24 heures)

TLE

FraisSource: CelesTrak SupGP

Époque: Sep 14, 2026, 20:15 UTC

1 44725C 19074N   26257.84423611  .00067634  00000+0  57054-3 0  2570
2 44725  53.1508  15.3161 0001850 358.2795  34.0273 15.69099164    16

Suivez STARLINK-1020 en temps réel avec AllMySat

Download on the App Store